Elefsis, Greece

10:56 AM EET on December 14, 2017 (GMT +0200)
Elefsis Air Base

Weather History for LGEL - January, 2013

Change the Weather History Date:

Saturday, January 12, 2013

  Actual Average Record
Temperature  
Mean Temperature 50 °F -  
Max Temperature 59 °F 54 °F 70 °F (2016)
Min Temperature 41 °F 40 °F 35 °F (1998)
Degree Days  
Heating Degree Days 15    
Moisture  
Dew Point 42 °F    
Average Humidity 74    
Maximum Humidity 93    
Minimum Humidity 55    
Precipitation  
Precipitation 0.00 in - - ()
Sea Level Pressure  
Sea Level Pressure 29.90 in    
Wind  
Wind Speed 3 mph ()    
Max Wind Speed 15 mph    
Max Gust Speed -    
Visibility 6.2 miles    
Events      
Averages and records for this station are not official NWS values.
T = Trace of Precipitation, MM = Missing Value Source: Averaged Metar Reports

Daily Weather History Graph

Daily Weather History Graph

Search for Another Location

Airport or City:

Trip Planner

Search our weather history database for the weather conditions in past years. The results will help you decide how hot, cold, wet, or windy it might be!

Date:

Astronomy

Jan. 12, 2013 Rise Set
Actual Time 7:41 AM EET 5:26 PM EET
Civil Twilight 7:12 AM EET 5:55 PM EET
Nautical Twilight 6:40 AM EET 6:28 PM EET
Astronomical Twilight 6:08 AM EET 7:00 PM EET
Moon 7:48 AM EET (1/12) 6:31 PM EET (1/12)
Length of Visible Light 10h 43m
Length of Day
9h 45m
New Moon, 1% of the Moon is Illuminated
Jan 12
New Moon
Jan 19
First Quarter
Jan 27
Full
Feb 3
Last Quarter
Feb 10
New

Hourly Weather History & Observations

Time (EET) Temp. Windchill Dew Point Humidity Pressure Visibility Wind Dir Wind Speed Gust Speed Precip Events Conditions
12:50 AM 44.6 °F - 41.0 °F 87% 29.86 in 6.2 mi Calm Calm - N/A   Partly Cloudy
1:50 AM 42.8 °F - 41.0 °F 93% 29.86 in 6.2 mi Calm Calm - N/A   Partly Cloudy
2:50 AM 42.8 °F - 41.0 °F 93% 29.86 in 6.2 mi Calm Calm - N/A   Partly Cloudy
3:50 AM 42.8 °F - 41.0 °F 93% 29.86 in 6.2 mi Calm Calm - N/A   Partly Cloudy
4:50 AM 42.8 °F - 41.0 °F 93% 29.83 in 6.2 mi Calm Calm - N/A   Partly Cloudy
5:50 AM 41.0 °F - 39.2 °F 93% 29.83 in 6.2 mi Calm Calm - N/A   Partly Cloudy
6:50 AM 42.8 °F 39.3 °F 41.0 °F 93% 29.83 in 6.2 mi North 5.8 mph - N/A   Scattered Clouds
7:20 AM 42.8 °F 40.1 °F 39.2 °F 87% 29.83 in 6.2 mi North 4.6 mph - N/A   Scattered Clouds
7:50 AM 42.8 °F - 39.2 °F 87% 29.83 in 6.2 mi Calm Calm - N/A   Partly Cloudy
8:20 AM 42.8 °F 38.6 °F 41.0 °F 93% 29.86 in 6.2 mi North 6.9 mph - N/A   Partly Cloudy
8:50 AM 44.6 °F 41.4 °F 41.0 °F 87% 29.86 in 6.2 mi North 5.8 mph - N/A   Scattered Clouds
9:20 AM 46.4 °F 44.3 °F 42.8 °F 87% 29.86 in 6.2 mi North 4.6 mph - N/A   Scattered Clouds
9:50 AM 50.0 °F - 44.6 °F 82% 29.86 in 6.2 mi Calm Calm - N/A   Scattered Clouds
10:20 AM 53.6 °F - 46.4 °F 77% 29.86 in 6.2 mi Calm Calm - N/A   Scattered Clouds
10:50 AM 55.4 °F - 46.4 °F 72% 29.89 in 6.2 mi Calm Calm - N/A   Mostly Cloudy
11:20 AM 53.6 °F - 46.4 °F 77% 29.89 in 6.2 mi Calm Calm - N/A   Mostly Cloudy
11:50 AM 57.2 °F - 46.4 °F 67% 29.89 in 6.2 mi Calm Calm - N/A   Scattered Clouds
12:20 PM 57.2 °F - 44.6 °F 63% 29.86 in 6.2 mi Calm Calm - N/A   Partly Cloudy
12:50 PM 59.0 °F - 44.6 °F 59% 29.86 in 6.2 mi Calm Calm - N/A   Partly Cloudy
1:20 PM 59.0 °F - 44.6 °F 59% 29.83 in 6.2 mi South 5.8 mph - N/A   Partly Cloudy
1:50 PM 59.0 °F - 44.6 °F 59% 29.83 in 6.2 mi South 4.6 mph - N/A   Partly Cloudy
2:20 PM 59.0 °F - 44.6 °F 59% 29.86 in 6.2 mi SW 9.2 mph - N/A   Scattered Clouds
2:50 PM 59.0 °F - 44.6 °F 59% 29.86 in 6.2 mi WNW 9.2 mph - N/A   Mostly Cloudy
3:20 PM 57.2 °F - 41.0 °F 55% 29.86 in 6.2 mi WNW 15.0 mph - N/A   Scattered Clouds
3:50 PM 57.2 °F - 41.0 °F 55% 29.89 in 6.2 mi West 12.7 mph - N/A   Mostly Cloudy
4:20 PM 57.2 °F - 41.0 °F 55% 29.89 in 6.2 mi WNW 12.7 mph - N/A   Mostly Cloudy
4:50 PM 57.2 °F - 41.0 °F 55% 29.92 in 6.2 mi West 5.8 mph - N/A   Scattered Clouds
5:20 PM 55.4 °F - 41.0 °F 58% 29.92 in 6.2 mi West 8.1 mph - N/A   Partly Cloudy
5:50 PM 53.6 °F - 41.0 °F 62% 29.92 in 6.2 mi Calm Calm - N/A   Partly Cloudy
6:20 PM 51.8 °F - 41.0 °F 67% 29.95 in 6.2 mi WNW 5.8 mph - N/A   Partly Cloudy
7:20 PM 53.6 °F - 39.2 °F 58% 29.95 in 6.2 mi Variable 3.5 mph - N/A   Partly Cloudy
7:50 PM 50.0 °F - 41.0 °F 71% 29.98 in 6.2 mi NNW 8.1 mph - N/A   Partly Cloudy
8:20 PM 50.0 °F - 41.0 °F 71% 29.98 in 6.2 mi Variable 3.5 mph - N/A   Partly Cloudy
8:50 PM 48.2 °F - 39.2 °F 71% 29.98 in 6.2 mi North 6.9 mph - N/A   Partly Cloudy
9:20 PM 48.2 °F - 41.0 °F 76% 30.01 in 6.2 mi NNW 6.9 mph - N/A   Partly Cloudy
9:50 PM 48.2 °F - 39.2 °F 71% 30.01 in 6.2 mi North 4.6 mph - N/A   Partly Cloudy
10:20 PM 46.4 °F 43.5 °F 39.2 °F 76% 30.01 in 6.2 mi North 5.8 mph - N/A   Partly Cloudy
10:50 PM 46.4 °F 45.2 °F 39.2 °F 76% 30.04 in 6.2 mi Variable 3.5 mph - N/A   Partly Cloudy
11:50 PM 44.6 °F 42.2 °F 39.2 °F 81% 30.04 in 6.2 mi North 4.6 mph - N/A   Partly Cloudy